Weather History for Lake Charles Regional, LA

Change the Weather History Date:

Sunday, May 26, 2013

  Actual Average Record
Temperature  
Mean Temperature 81 °F 78 °F  
Max Temperature 89 °F 87 °F 96 °F (2010)
Min Temperature 72 °F 69 °F 50 °F (1910)
Degree Days  
Heating Degree Days 0 0  
Month to date heating degree days 24 0  
Since 1 July heating degree days 1267 1489  
Cooling Degree Days 16 13  
Month to date cooling degree days 216 263  
Year to date cooling degree days 394 471  
Growing Degree Days 30 (Base 50)    
Moisture  
Dew Point 69 °F    
Average Humidity 70    
Maximum Humidity 93    
Minimum Humidity 46    
Precipitation  
Precipitation 0.00 in 0.18 in 1.30 in (1933)
Month to date precipitation 5.86 4.23  
Year to date precipitation 29.52 19.91  
Snow  
Snow 0.00 in 0.00 in 0.00 in ()
Month to date snowfall 0.0 0.0  
Since 1 July snowfall 0.0 0.1  
Snow Depth 0.00 in    
Sea Level Pressure  
Sea Level Pressure 30.12 in    
Wind  
Wind Speed 5 mph (SSE)    
Max Wind Speed 14 mph    
Max Gust Speed 18 mph    
Visibility 10 miles    
Events      
T = Trace of Precipitation, MM = Missing Value Source: NWS Daily Summary

Daily Weather History Graph

Daily Weather History Graph

Search for Another Location

Airport:

Trip Planner

Search our weather history database for the weather conditions in past years. The results will help you decide how hot, cold, wet, or windy it might be!

Date:

Astronomy

May. 26, 2013 Rise Set
Actual Time 6:13 AM CDT 8:06 PM CDT
Civil Twilight 5:46 AM CDT 8:33 PM CDT
Nautical Twilight 5:14 AM CDT 9:05 PM CDT
Astronomical Twilight 4:40 AM CDT 9:40 PM CDT
Moon 9:56 PM CDT (5/26) 7:42 AM CDT (5/26)
Length of Visible Light 14h 46m
Length of Day
13h 52m
Waning Gibbous, 96% of the Moon is Illuminated
May 26
Waning Gibbous
May 31
Last Quarter
Jun 8
New
Jun 16
First Quarter
Jun 23
Full

Hourly Weather History & Observations

Time (CDT) Temp. Heat Index Dew Point Humidity Pressure Visibility Wind Dir Wind Speed Gust Speed Precip Events Conditions
12:53 AM 73.0 °F - 66.9 °F 81% 30.13 in 10.0 mi East 3.5 mph - N/A   Partly Cloudy
1:53 AM 73.0 °F - 69.1 °F 87% 30.13 in 10.0 mi Calm Calm - N/A   Clear
2:53 AM 73.9 °F - 70.0 °F 87% 30.13 in 10.0 mi Calm Calm - N/A   Scattered Clouds
3:04 AM 73.4 °F - 69.8 °F 88% 30.11 in 10.0 mi Calm Calm - N/A   Mostly Cloudy
3:30 AM 73.4 °F - 69.8 °F 88% 30.10 in 10.0 mi Calm Calm - N/A   Partly Cloudy
3:53 AM 73.0 °F - 70.0 °F 90% 30.14 in 10.0 mi Calm Calm - N/A   Mostly Cloudy
4:00 AM 73.4 °F - 69.8 °F 88% 30.11 in 10.0 mi Calm Calm - N/A   Scattered Clouds
4:53 AM 73.9 °F - 71.1 °F 91% 30.13 in 10.0 mi Calm Calm - N/A   Clear
5:53 AM 73.0 °F - 71.1 °F 93% 30.13 in 10.0 mi East 5.8 mph - N/A   Clear
6:53 AM 73.9 °F - 72.0 °F 93% 30.14 in 10.0 mi Calm Calm - N/A   Clear
7:53 AM 75.0 °F - 72.0 °F 90% 30.14 in 10.0 mi ESE 4.6 mph - N/A   Clear
8:53 AM 79.0 °F - 73.0 °F 82% 30.15 in 10.0 mi SSE 5.8 mph - N/A   Clear
9:53 AM 81.0 °F 84.4 °F 70.0 °F 69% 30.15 in 10.0 mi SSE 9.2 mph - N/A   Partly Cloudy
10:53 AM 82.9 °F 87.0 °F 70.0 °F 65% 30.16 in 10.0 mi South 4.6 mph - N/A   Scattered Clouds
11:53 AM 86.0 °F 89.4 °F 68.0 °F 55% 30.16 in 10.0 mi SE 10.4 mph - N/A   Partly Cloudy
12:53 PM 87.1 °F 89.9 °F 66.9 °F 51% 30.16 in 10.0 mi South 8.1 mph - N/A   Partly Cloudy
1:53 PM 87.1 °F 88.3 °F 64.0 °F 46% 30.14 in 10.0 mi South 6.9 mph - N/A   Partly Cloudy
2:53 PM 87.1 °F 90.6 °F 68.0 °F 53% 30.13 in 10.0 mi South 8.1 mph - N/A   Mostly Cloudy
3:53 PM 84.9 °F 88.8 °F 69.1 °F 59% 30.11 in 10.0 mi South 11.5 mph 16.1 mph N/A   Partly Cloudy
4:53 PM 84.9 °F 88.8 °F 69.1 °F 59% 30.11 in 10.0 mi South 8.1 mph - N/A   Partly Cloudy
5:53 PM 84.0 °F 87.0 °F 68.0 °F 58% 30.09 in 10.0 mi South 5.8 mph - N/A   Clear
6:53 PM 81.0 °F 83.8 °F 68.0 °F 65% 30.08 in 10.0 mi Variable 5.8 mph - N/A   Clear
7:53 PM 79.0 °F - 68.0 °F 69% 30.09 in 10.0 mi South 4.6 mph - N/A   Partly Cloudy
8:53 PM 77.0 °F - 70.0 °F 79% 30.09 in 10.0 mi South 5.8 mph - N/A   Clear
9:53 PM 75.9 °F - 71.1 °F 85% 30.11 in 10.0 mi SSE 4.6 mph - N/A   Clear
10:53 PM 73.0 °F - 70.0 °F 90% 30.11 in 10.0 mi SSE 4.6 mph - N/A   Partly Cloudy
11:53 PM 73.0 °F - 70.0 °F 90% 30.11 in 10.0 mi SSE 3.5 mph - N/A   Clear